Location: Cheching
(60.0667°N, 164.2167°W)
Time: 11:13:10
(UTC+00:00)

O/OREOS (USA 219) - Visible Passes

Search period start: 20 June 2021 00:00
Search period end: 30 June 2021 00:00
Orbit: 621 x 646 km, 72.0° (Epoch: 22 May)

Date Brightness Start Highest point End Pass type
(mag) Time Alt. Az. Time Alt. Az. Time Alt. Az.
20 Jun ? 11:00:14 10° SW 11:04:48 88° SE 11:09:27 10° NE visible
21 Jun ? 11:22:26 10° SW 11:26:58 60° NW 11:31:33 10° NE visible
22 Jun ? 10:05:07 10° SSW 10:09:36 57° ESE 10:14:08 10° NE visible
23 Jun ? 10:27:03 10° SW 10:31:38 87° NW 10:36:17 10° NE visible
24 Jun ? 10:49:17 10° SW 10:53:48 56° NW 10:58:22 10° NE visible
25 Jun ? 11:11:47 10° WSW 11:16:05 38° NW 11:20:27 10° NNE visible
26 Jun ? 11:34:29 10° W 11:38:30 29° NNW 11:42:33 10° NNE visible
27 Jun ? 10:16:08 10° WSW 10:20:38 53° NW 10:25:11 10° NE visible
28 Jun ? 10:38:40 10° WSW 10:42:57 37° NW 10:47:16 10° NNE visible
29 Jun ? 11:01:24 10° W 11:05:22 28° NNW 11:09:23 10° NNE visible
